| time (UTC) | temp C | wind direction | speed KPH | gust KPH | rain 1hr cm | rain 24hr cm | rain mn cm | humidity % | barometer mb |
| 20260905151532 | 16 | 150 | 3.2 | 12.9 | 0.00 | 0.18 | 0.18 | 56 | 1018.8 |
| 20260905150012 | 17 | 165 | 1.6 | 17.7 | 0.00 | 0.18 | 0.18 | 56 | 1018.6 |
| 20260905144518 | 17 | 142 | 3.2 | 12.9 | 0.00 | 0.18 | 0.18 | 55 | 1018.7 |
| 20260905143004 | 18 | 27 | 3.2 | 14.5 | 0.00 | 0.18 | 0.18 | 53 | 1018.7 |
| 20260905141515 | 18 | 179 | 4.8 | 12.9 | 0.00 | 0.18 | 0.18 | 53 | 1018.5 |
| 20260905140010 | 18 | 179 | 6.4 | 19.3 | 0.00 | 0.18 | 0.18 | 53 | 1018.5 |
| 20260905134514 | 17 | 165 | 3.2 | 9.7 | 0.00 | 0.18 | 0.18 | 55 | 1018.7 |
| 20260905133024 | 17 | 179 | 3.2 | 19.3 | 0.00 | 0.18 | 0.18 | 53 | 1018.7 |
| 20260905131529 | 17 | 6 | 3.2 | 14.5 | 0.00 | 0.18 | 0.18 | 57 | 1018.8 |
| 20260905130006 | 17 | 30 | 1.6 | 14.5 | 0.00 | 0.18 | 0.18 | 56 | 1018.8 |
| 20260905124511 | 16 | 165 | 3.2 | 12.9 | 0.00 | 0.18 | 0.18 | 62 | 1018.8 |
| 20260905123017 | 16 | 179 | 1.6 | 14.5 | 0.00 | 0.18 | 0.18 | 64 | 1018.8 |
| 20260905121524 | 17 | 21 | 4.8 | 12.9 | 0.00 | 0.18 | 0.18 | 61 | 1018.8 |
| 20260905120007 | 17 | 195 | 3.2 | 11.3 | 0.00 | 0.18 | 0.18 | 63 | 1018.7 |
| 20260905114510 | 17 | 179 | 6.4 | 19.3 | 0.00 | 0.18 | 0.18 | 62 | 1018.9 |
| 20260905113010 | 17 | 179 | 4.8 | 22.5 | 0.00 | 0.18 | 0.18 | 58 | 1018.7 |
| 20260905111521 | 17 | 277 | 4.8 | 22.5 | 0.00 | 0.18 | 0.18 | 58 | 1018.5 |
| 20260905110024 | 19 | 165 | 1.6 | 12.9 | 0.00 | 0.18 | 0.18 | 57 | 1018.6 |
| 20260905104527 | 18 | 160 | 3.2 | 19.3 | 0.00 | 0.18 | 0.18 | 59 | 1018.4 |
| 20260905103011 | 17 | 109 | 1.6 | 20.9 | 0.00 | 0.18 | 0.18 | 62 | 1018.3 |
| 20260905101523 | 16 | 179 | 1.6 | 17.7 | 0.00 | 0.18 | 0.18 | 66 | 1018.5 |
| 20260905100023 | 17 | 30 | 3.2 | 12.9 | 0.00 | 0.18 | 0.18 | 64 | 1018.6 |
| 20260905094527 | 16 | 155 | 1.6 | 14.5 | 0.00 | 0.18 | 0.18 | 66 | 1018.6 |
| 20260905093032 | 16 | 179 | 3.2 | 17.7 | 0.00 | 0.18 | 0.18 | 66 | 1018.7 |
| 20260905091515 | 17 | 179 | 4.8 | 20.9 | 0.00 | 0.18 | 0.18 | 65 | 1018.6 |
| 20260905090016 | 16 | 179 | 6.4 | 22.5 | 0.00 | 0.18 | 0.18 | 65 | 1018.6 |
| 20260905084523 | 16 | 32 | 3.2 | 11.3 | 0.00 | 0.18 | 0.18 | 68 | 1018.4 |
| 20260905083026 | 16 | 165 | 3.2 | 11.3 | 0.00 | 0.18 | 0.18 | 69 | 1018.3 |
| 20260905081533 | 15 | 165 | 1.6 | 8.0 | 0.00 | 0.18 | 0.18 | 71 | 1018.0 |
| 20260905080012 | 15 | 179 | 0.0 | 19.3 | 0.00 | 0.18 | 0.18 | 73 | 1018.1 |
| 20260905074539 | 15 | 179 | 1.6 | 11.3 | 0.00 | 0.18 | 0.18 | 76 | 1018.0 |
| 20260905073026 | 14 | 5 | 3.2 | 11.3 | 0.00 | 0.18 | 0.18 | 77 | 1017.9 |
| 20260905071528 | 15 | 277 | 1.6 | 9.7 | 0.00 | 0.18 | 0.18 | 77 | 1017.8 |
| 20260905070037 | 12 | 179 | 1.6 | 8.0 | 0.00 | 0.18 | 0.18 | 82 | 1017.7 |
| 20260905064534 | 12 | 179 | 1.6 | 12.9 | 0.00 | 0.18 | 0.18 | 83 | 1017.7 |
| 20260905063020 | 12 | 179 | 1.6 | 12.9 | 0.00 | 0.18 | 0.18 | 85 | 1017.5 |
| 20260905061526 | 12 | 179 | 0.0 | 9.7 | 0.00 | 0.18 | 0.18 | 84 | 1017.4 |
| 20260905060006 | 12 | 179 | 0.0 | 6.4 | 0.00 | 0.18 | 0.18 | 85 | 1017.3 |
| 20260905054511 | 12 | 179 | 1.6 | 6.4 | 0.00 | 0.18 | 0.18 | 85 | 1017.1 |
| 20260905053016 | 12 | 179 | 1.6 | 4.8 | 0.03 | 0.18 | 0.18 | 86 | 1016.5 |
| 20260905051522 | 12 | 179 | 3.2 | 6.4 | 0.10 | 0.18 | 0.18 | 87 | 1016.7 |
| 20260905050005 | 12 | 179 | 0.0 | 4.8 | 0.10 | 0.18 | 0.18 | 87 | 1016.6 |
| 20260905044511 | 12 | 179 | 0.0 | 4.8 | 0.10 | 0.18 | 0.18 | 86 | 1015.9 |
| 20260905043012 | 12 | 179 | 0.0 | 9.7 | 0.08 | 0.13 | 0.13 | 83 | 1016.5 |
| 20260905041523 | 12 | 179 | 3.2 | 12.9 | 0.00 | 0.05 | 0.05 | 79 | 1016.9 |
| 20260905040033 | 12 | 179 | 3.2 | 16.1 | 0.00 | 0.05 | 0.05 | 80 | 1016.6 |
| 20260905034506 | 12 | 179 | 1.6 | 6.4 | 0.00 | 0.05 | 0.05 | 80 | 1016.0 |
| 20260905033010 | 13 | 179 | 3.2 | 14.5 | 0.05 | 0.05 | 0.05 | 80 | 1016.2 |
| 20260905031516 | 13 | 179 | 3.2 | 11.3 | 0.03 | 0.03 | 0.03 | 78 | 1015.6 |
| 20260905030024 | 13 | 179 | 1.6 | 16.1 | 0.03 | 0.03 | 0.03 | 81 | 1015.7 |
| 20260905024530 | 13 | 179 | 1.6 | 12.9 | 0.03 | 0.03 | 0.03 | 81 | 1015.4 |
| 20260905023031 | 15 | 179 | 1.6 | 9.7 | 0.00 | 0.00 | 0.00 | 78 | 1015.4 |
| 20260905021514 | 14 | 179 | 0.0 | 4.8 | 0.00 | 0.00 | 0.00 | 78 | 1015.0 |
| 20260905020023 | 14 | 179 | 1.6 | 6.4 | 0.00 | 0.00 | 0.00 | 80 | 1015.1 |
| 20260905014524 | 15 | 179 | 0.0 | 6.4 | 0.00 | 0.00 | 0.00 | 79 | 1015.1 |
| 20260905013028 | 15 | 179 | 0.0 | 6.4 | 0.00 | 0.00 | 0.00 | 75 | 1014.7 |
| 20260905011530 | 16 | 179 | 1.6 | 8.0 | 0.00 | 0.00 | 0.00 | 74 | 1015.1 |
| 20260905010020 | 15 | 179 | 1.6 | 8.0 | 0.00 | 0.00 | 0.00 | 73 | 1015.1 |
| 20260905004520 | 15 | 179 | 0.0 | 4.8 | 0.00 | 0.00 | 0.00 | 80 | 1015.0 |
| 20260905003028 | 15 | 179 | 0.0 | 0.0 | 0.00 | 0.00 | 0.00 | 79 | 1015.0 |
| 20260905001527 | 15 | 179 | 0.0 | 4.8 | 0.00 | 0.00 | 0.00 | 78 | 1014.5 |
| 20260905000005 | 15 | 179 | 0.0 | 1.6 | 0.00 | 0.00 | 0.00 | 77 | 1014.4 |
| 20260904234504 | 15 | 179 | 0.0 | 0.0 | 0.00 | 0.00 | 0.00 | 74 | 1014.5 |
| 20260904233004 | 15 | 179 | 0.0 | 1.6 | 0.00 | 0.00 | 0.00 | 73 | 1014.0 |
| 20260904231503 | 16 | 15 | 1.6 | 6.4 | 0.00 | 0.00 | 0.00 | 72 | 1014.4 |
| 20260904230011 | 16 | 323 | 0.0 | 3.2 | 0.00 | 0.00 | 0.00 | 71 | 1013.9 |
| 20260904224503 | 16 | 314 | 0.0 | 6.4 | 0.00 | 0.00 | 0.00 | 70 | 1013.7 |
| 20260904223004 | 16 | 164 | 0.0 | 0.0 | 0.00 | 0.00 | 0.00 | 69 | 1013.5 |
| 20260904221504 | 17 | 23 | 0.0 | 6.4 | 0.00 | 0.00 | 0.00 | 67 | 1013.4 |
| 20260904220004 | 17 | 32 | 1.6 | 4.8 | 0.00 | 0.00 | 0.00 | 66 | 1013.3 |
| 20260904214513 | 18 | 15 | 1.6 | 8.0 | 0.00 | 0.00 | 0.00 | 65 | 1013.1 |
| 20260904213004 | 18 | 5 | 0.0 | 4.8 | 0.00 | 0.00 | 0.00 | 65 | 1013.0 |
| 20260904211504 | 19 | 73 | 0.0 | 9.7 | 0.00 | 0.00 | 0.00 | 64 | 1013.0 |
| 20260904210008 | 20 | 306 | 0.0 | 17.7 | 0.00 | 0.00 | 0.00 | 64 | 1012.8 |
| 20260904204510 | 22 | 309 | 3.2 | 20.9 | 0.00 | 0.00 | 0.00 | 59 | 1012.4 |
| 20260904203004 | 22 | 179 | 1.6 | 17.7 | 0.00 | 0.00 | 0.00 | 57 | 1011.8 |
| 20260904201508 | 22 | 179 | 4.8 | 17.7 | 0.00 | 0.00 | 0.00 | 57 | 1011.9 |
| 20260904200010 | 22 | 179 | 1.6 | 9.7 | 0.00 | 0.00 | 0.00 | 58 | 1012.0 |
| 20260904194508 | 22 | 233 | 3.2 | 14.5 | 0.00 | 0.00 | 0.00 | 59 | 1011.9 |
| 20260904193014 | 22 | 179 | 1.6 | 19.3 | 0.00 | 0.00 | 0.00 | 60 | 1011.9 |
| 20260904191508 | 22 | 225 | 3.2 | 11.3 | 0.00 | 0.00 | 0.00 | 60 | 1011.9 |
| 20260904190024 | 22 | 153 | 1.6 | 22.5 | 0.00 | 0.00 | 0.00 | 60 | 1012.0 |
| 20260904184511 | 22 | 292 | 3.2 | 8.0 | 0.00 | 0.00 | 0.00 | 60 | 1012.1 |
| 20260904183010 | 22 | 179 | 4.8 | 14.5 | 0.00 | 0.00 | 0.00 | 59 | 1012.2 |
| 20260904181512 | 22 | 33 | 4.8 | 12.9 | 0.00 | 0.00 | 0.00 | 58 | 1012.4 |
| 20260904180014 | 22 | 179 | 1.6 | 12.9 | 0.00 | 0.00 | 0.00 | 60 | 1012.3 |
| 20260904174513 | 21 | 165 | 3.2 | 14.5 | 0.00 | 0.00 | 0.00 | 61 | 1012.2 |
| 20260904173010 | 22 | 200 | 3.2 | 11.3 | 0.00 | 0.00 | 0.00 | 60 | 1012.2 |
| 20260904171512 | 22 | 200 | 1.6 | 24.1 | 0.00 | 0.00 | 0.00 | 59 | 1012.2 |
| 20260904170013 | 22 | 277 | 4.8 | 17.7 | 0.00 | 0.00 | 0.00 | 59 | 1012.1 |
| 20260904164516 | 22 | 179 | 1.6 | 19.3 | 0.00 | 0.00 | 0.00 | 60 | 1011.9 |
| 20260904163004 | 22 | 238 | 3.2 | 17.7 | 0.00 | 0.00 | 0.00 | 61 | 1012.1 |
| 20260904161504 | 22 | 359 | 3.2 | 16.1 | 0.00 | 0.00 | 0.00 | 61 | 1012.1 |
| 20260904160005 | 22 | 265 | 3.2 | 20.9 | 0.00 | 0.00 | 0.00 | 60 | 1012.3 |
| 20260904154511 | 22 | 187 | 1.6 | 19.3 | 0.00 | 0.00 | 0.00 | 61 | 1012.2 |
| 20260904153017 | 22 | 131 | 1.6 | 11.3 | 0.00 | 0.00 | 0.00 | 62 | 1012.4 |